�������l�o���
Date,Time,MP-1(��Sv/h),MP-2(��Sv/h),MP-3(��Sv/h),MP-4(��Sv/h),MP-5(��Sv/h),MP-6(��Sv/h),MP-7(��Sv/h),MP-8(��Sv/h),����,����(m/s),���J
2022/10/29,00:00,0.575,0.826,0.523,1.043,0.728,0.337,0.589,0.556,�k��,3.8,��
2022/10/29,00:10,0.575,0.824,0.523,1.042,0.729,0.336,0.589,0.555,���k��,4.1,��
2022/10/29,00:20,0.576,0.823,0.522,1.043,0.730,0.335,0.589,0.556,���k��,4.1,��
2022/10/29,00:30,0.575,0.822,0.523,1.044,0.732,0.335,0.589,0.556,���k��,5.3,��
2022/10/29,00:40,0.576,0.825,0.524,1.043,0.730,0.335,0.590,0.556,�k��,6.0,��
2022/10/29,00:50,0.576,0.825,0.524,1.044,0.730,0.335,0.589,0.556,�k��,6.8,��
2022/10/29,01:00,0.575,0.824,0.522,1.043,0.731,0.335,0.588,0.555,�k��,6.5,��
2022/10/29,01:10,0.576,0.825,0.524,1.046,0.731,0.337,0.590,0.557,�k��,7.1,��
2022/10/29,01:20,0.575,0.826,0.525,1.043,0.729,0.337,0.589,0.556,�k��,6.4,��
2022/10/29,01:30,0.577,0.827,0.522,1.046,0.731,0.336,0.589,0.556,�k��,6.3,��
2022/10/29,01:40,0.575,0.824,0.523,1.043,0.730,0.335,0.589,0.555,�k��,5.6,��
2022/10/29,01:50,0.576,0.825,0.522,1.043,0.730,0.336,0.589,0.555,�k��,5.1,��
2022/10/29,02:00,0.574,0.825,0.524,1.042,0.730,0.336,0.589,0.556,�k��,6.1,��
2022/10/29,02:10,0.575,0.825,0.523,1.044,0.730,0.337,0.589,0.556,�k��,5.1,��
2022/10/29,02:20,0.573,0.824,0.522,1.042,0.731,0.336,0.589,0.556,�k��,5.5,��
2022/10/29,02:30,0.575,0.824,0.524,1.043,0.729,0.337,0.589,0.557,�k��,5.1,��
2022/10/29,02:40,0.575,0.824,0.524,1.046,0.730,0.337,0.589,0.556,�k��,4.6,��
2022/10/29,02:50,0.576,0.823,0.523,1.043,0.730,0.335,0.588,0.557,�k��,4.1,��
2022/10/29,03:00,0.575,0.825,0.524,1.045,0.731,0.335,0.588,0.555,�k��,5.1,��
2022/10/29,03:10,0.576,0.825,0.523,1.043,0.729,0.335,0.590,0.557,�k��,5.0,��
2022/10/29,03:20,0.577,0.825,0.524,1.043,0.729,0.336,0.590,0.557,�k��,5.7,��
2022/10/29,03:30,0.576,0.824,0.523,1.045,0.729,0.335,0.591,0.557,�k��,7.0,��
2022/10/29,03:40,0.574,0.823,0.523,1.045,0.730,0.336,0.590,0.556,�k��,7.7,��
2022/10/29,03:50,0.577,0.826,0.523,1.044,0.730,0.335,0.589,0.556,�k��,6.6,��
2022/10/29,04:00,0.576,0.823,0.521,1.043,0.730,0.335,0.589,0.557,�k��,6.5,��
2022/10/29,04:10,0.575,0.823,0.524,1.045,0.730,0.336,0.590,0.555,�k��,7.2,��
2022/10/29,04:20,0.575,0.826,0.523,1.047,0.731,0.336,0.589,0.557,�k��,5.9,��
2022/10/29,04:30,0.577,0.826,0.522,1.043,0.728,0.336,0.589,0.557,�k��,6.3,��
2022/10/29,04:40,0.574,0.825,0.523,1.046,0.731,0.335,0.591,0.555,�k��,6.6,��
2022/10/29,04:50,0.576,0.825,0.523,1.045,0.730,0.335,0.590,0.556,�k��,6.6,��
2022/10/29,05:00,0.574,0.826,0.522,1.045,0.730,0.336,0.591,0.556,�k��,6.2,��
2022/10/29,05:10,0.576,0.822,0.523,1.042,0.729,0.337,0.590,0.556,�k��,6.4,��
2022/10/29,05:20,0.574,0.824,0.523,1.043,0.730,0.336,0.591,0.556,�k�k��,5.8,��
2022/10/29,05:30,0.575,0.824,0.523,1.045,0.729,0.336,0.588,0.557,�k�k��,6.5,��
2022/10/29,05:40,0.577,0.824,0.524,1.045,0.731,0.336,0.590,0.557,�k��,6.6,��
2022/10/29,05:50,0.574,0.825,0.523,1.045,0.729,0.336,0.589,0.556,�k�k��,6.4,��
2022/10/29,06:00,0.576,0.824,0.523,1.046,0.731,0.335,0.590,0.556,�k�k��,6.2,��
2022/10/29,06:10,0.573,0.823,0.522,1.043,0.730,0.336,0.589,0.555,�k�k��,5.6,��
2022/10/29,06:20,0.576,0.823,0.523,1.046,0.729,0.334,0.588,0.556,�k��,5.2,��
2022/10/29,06:30,0.575,0.824,0.523,1.045,0.729,0.335,0.589,0.556,�k��,5.6,��
2022/10/29,06:40,0.577,0.824,0.523,1.045,0.729,0.335,0.590,0.556,�k��,5.5,��
2022/10/29,06:50,0.575,0.825,0.523,1.045,0.730,0.336,0.591,0.555,�k��,5.7,��
2022/10/29,07:00,0.577,0.825,0.523,1.045,0.729,0.335,0.591,0.555,�k�k��,5.2,��
2022/10/29,07:10,0.575,0.826,0.523,1.045,0.730,0.335,0.589,0.556,�k�k��,5.8,��
2022/10/29,07:20,0.577,0.825,0.524,1.043,0.727,0.336,0.591,0.556,�k�k��,5.2,��
2022/10/29,07:30,0.575,0.825,0.523,1.044,0.730,0.336,0.590,0.557,�k�k��,5.6,��
2022/10/29,07:40,0.577,0.826,0.522,1.045,0.730,0.335,0.590,0.556,�k�k��,6.6,��
2022/10/29,07:50,0.576,0.826,0.524,1.044,0.730,0.337,0.591,0.557,�k�k��,7.2,��
2022/10/29,08:00,0.577,0.826,0.526,1.046,0.731,0.336,0.592,0.555,�k�k��,7.1,��
2022/10/29,08:10,0.578,0.825,0.523,1.046,0.731,0.336,0.592,0.556,�k�k��,5.9,��
2022/10/29,08:20,0.578,0.825,0.524,1.043,0.731,0.336,0.591,0.557,�k,4.0,��
2022/10/29,08:30,0.581,0.822,0.523,1.044,0.730,0.338,0.590,0.557,�k�k��,5.4,��
2022/10/29,08:40,0.576,0.824,0.524,1.044,0.731,0.337,0.589,0.556,�k�k��,5.4,��
2022/10/29,08:50,0.578,0.821,0.523,1.044,0.732,0.336,0.592,0.557,�k�k��,5.9,��
2022/10/29,09:00,0.577,0.822,0.524,1.044,0.731,0.336,0.588,0.557,�k�k��,7.0,��
2022/10/29,09:10,0.575,0.825,0.526,1.045,0.732,0.337,0.589,0.557,�k�k��,6.0,��
2022/10/29,09:20,0.575,0.823,0.525,1.046,0.730,0.337,0.590,0.557,�k�k��,5.2,��
2022/10/29,09:30,0.577,0.825,0.525,1.044,0.731,0.337,0.588,0.559,�k�k��,3.8,��
2022/10/29,09:40,0.577,0.825,0.525,1.044,0.730,0.337,0.589,0.559,�k�k��,4.3,��
2022/10/29,09:50,0.577,0.826,0.525,1.046,0.730,0.336,0.590,0.556,�k�k��,5.4,��
2022/10/29,10:00,0.578,0.826,0.524,1.045,0.729,0.336,0.589,0.558,�k�k��,4.0,��
2022/10/29,10:10,0.578,0.827,0.523,1.046,0.730,0.335,0.589,0.557,�k��,3.2,��
2022/10/29,10:20,0.579,0.827,0.522,1.046,0.732,0.336,0.590,0.557,�k��,5.8,��
2022/10/29,10:30,0.579,0.826,0.525,1.047,0.732,0.336,0.589,0.555,���k��,4.9,��
2022/10/29,10:40,0.578,0.828,0.523,1.045,0.731,0.336,0.591,0.555,���k��,4.7,��
2022/10/29,10:50,0.580,0.829,0.523,1.047,0.732,0.336,0.589,0.557,�k��,4.1,��
2022/10/29,11:00,0.578,0.826,0.523,1.047,0.732,0.337,0.588,0.556,���k��,4.9,��
2022/10/29,11:10,0.579,0.826,0.523,1.047,0.732,0.337,0.589,0.556,���k��,6.1,��
2022/10/29,11:20,0.579,0.826,0.524,1.048,0.733,0.336,0.590,0.557,�k��,6.0,��
2022/10/29,11:30,0.579,0.828,0.524,1.047,0.732,0.336,0.590,0.557,�k��,4.9,��
2022/10/29,11:40,0.580,0.828,0.524,1.047,0.733,0.336,0.590,0.555,���k��,5.5,��
2022/10/29,11:50,0.578,0.826,0.524,1.048,0.733,0.336,0.592,0.556,��,7.6,��
2022/10/29,12:00,0.580,0.828,0.524,1.048,0.732,0.336,0.589,0.556,��,5.4,��
2022/10/29,12:10,0.578,0.828,0.523,1.048,0.733,0.336,0.588,0.557,��,6.1,��
2022/10/29,12:20,0.580,0.828,0.526,1.048,0.734,0.336,0.588,0.555,���k��,5.0,��
2022/10/29,12:30,0.579,0.828,0.524,1.047,0.733,0.337,0.589,0.556,���k��,5.6,��
2022/10/29,12:40,0.580,0.829,0.525,1.048,0.733,0.336,0.590,0.556,�k�k��,6.0,��
2022/10/29,12:50,0.580,0.828,0.525,1.049,0.736,0.336,0.591,0.556,�k�k��,8.0,��
2022/10/29,13:00,0.578,0.828,0.524,1.049,0.735,0.336,0.590,0.555,�k��,6.7,��
2022/10/29,13:10,0.581,0.829,0.525,1.051,0.734,0.337,0.590,0.559,�k��,6.6,��
2022/10/29,13:20,0.579,0.829,0.524,1.049,0.734,0.337,0.589,0.557,�k��,5.6,��
2022/10/29,13:30,0.579,0.830,0.525,1.049,0.736,0.336,0.592,0.556,�k�k��,9.2,��
2022/10/29,13:40,0.580,0.829,0.526,1.048,0.734,0.336,0.589,0.558,�k�k��,7.0,��
2022/10/29,13:50,0.579,0.828,0.524,1.050,0.735,0.335,0.590,0.558,�k�k��,5.2,��
2022/10/29,14:00,0.579,0.828,0.524,1.048,0.734,0.336,0.590,0.557,�k��,6.8,��
2022/10/29,14:10,0.577,0.827,0.524,1.050,0.734,0.335,0.589,0.559,�k�k��,6.4,��
2022/10/29,14:20,0.577,0.829,0.523,1.049,0.734,0.336,0.591,0.557,�k�k��,7.0,��
2022/10/29,14:30,0.578,0.829,0.525,1.048,0.735,0.336,0.589,0.557,�k��,5.5,��
2022/10/29,14:40,0.578,0.829,0.525,1.052,0.734,0.336,0.589,0.558,�k��,7.0,��
2022/10/29,14:50,0.578,0.830,0.524,1.048,0.735,0.336,0.591,0.558,�k��,5.2,��
2022/10/29,15:00,0.580,0.829,0.524,1.052,0.734,0.336,0.590,0.556,�k�k��,6.8,��
2022/10/29,15:10,0.578,0.829,0.525,1.050,0.735,0.336,0.588,0.558,�k�k��,6.1,��
2022/10/29,15:20,0.579,0.829,0.525,1.049,0.734,0.335,0.589,0.558,�k�k��,5.1,��
2022/10/29,15:30,0.578,0.828,0.526,1.049,0.734,0.337,0.588,0.557,�k�k��,5.3,��
2022/10/29,15:40,0.579,0.829,0.525,1.049,0.735,0.337,0.588,0.558,�k�k��,5.2,��
2022/10/29,15:50,0.580,0.829,0.524,1.052,0.734,0.336,0.588,0.556,�k�k��,4.9,��
2022/10/29,16:00,0.579,0.829,0.525,1.052,0.735,0.338,0.588,0.559,�k��,5.8,��
2022/10/29,16:10,0.578,0.829,0.525,1.051,0.733,0.337,0.589,0.557,�k��,5.0,��
2022/10/29,16:20,0.577,0.829,0.525,1.049,0.734,0.338,0.589,0.558,�k�k��,4.5,��
2022/10/29,16:30,0.577,0.832,0.524,1.051,0.733,0.337,0.589,0.560,�k�k��,3.8,��
2022/10/29,16:40,0.576,0.831,0.522,1.050,0.734,0.336,0.590,0.558,�k��,4.6,��
2022/10/29,16:50,0.576,0.832,0.522,1.048,0.733,0.336,0.589,0.560,�k�k��,5.1,��
2022/10/29,17:00,0.579,0.832,0.525,1.049,0.735,0.337,0.591,0.558,�k��,4.0,��
2022/10/29,17:10,0.577,0.831,0.525,1.049,0.735,0.337,0.589,0.558,�k��,3.4,��
2022/10/29,17:20,0.581,0.831,0.526,1.050,0.738,0.337,0.590,0.559,�k��,6.3,��
2022/10/29,17:30,0.579,0.831,0.525,1.049,0.736,0.337,0.591,0.559,�k�k��,5.4,��
2022/10/29,17:40,0.579,0.833,0.524,1.049,0.736,0.337,0.589,0.558,�k�k��,4.8,��
2022/10/29,17:50,0.580,0.829,0.525,1.050,0.737,0.336,0.592,0.557,�k�k��,4.7,��
2022/10/29,18:00,0.581,0.832,0.526,1.048,0.736,0.337,0.590,0.557,�k��,5.0,��
2022/10/29,18:10,0.581,0.830,0.526,1.051,0.732,0.337,0.590,0.558,�k�k��,5.9,��
2022/10/29,18:20,0.580,0.830,0.526,1.050,0.735,0.337,0.592,0.558,�k�k��,5.8,��
2022/10/29,18:30,0.580,0.830,0.526,1.049,0.738,0.337,0.590,0.557,�k�k��,5.2,��
2022/10/29,18:40,0.578,0.831,0.525,1.052,0.737,0.336,0.590,0.557,�k�k��,5.2,��
2022/10/29,18:50,0.579,0.832,0.528,1.051,0.737,0.337,0.591,0.558,�k�k��,5.2,��
2022/10/29,19:00,0.580,0.831,0.526,1.050,0.736,0.337,0.591,0.558,�k��,5.2,��
2022/10/29,19:10,0.578,0.831,0.526,1.052,0.737,0.336,0.591,0.558,�k�k��,5.9,��
2022/10/29,19:20,0.578,0.831,0.525,1.050,0.737,0.337,0.591,0.556,�k��,6.2,��
2022/10/29,19:30,0.579,0.831,0.525,1.050,0.735,0.336,0.591,0.558,�k��,5.9,��
2022/10/29,19:40,0.579,0.832,0.526,1.051,0.739,0.338,0.591,0.557,�k�k��,6.2,��
2022/10/29,19:50,0.579,0.831,0.525,1.050,0.736,0.337,0.590,0.557,�k��,7.2,��
2022/10/29,20:00,0.579,0.830,0.525,1.050,0.734,0.337,0.590,0.556,�k��,6.8,��
2022/10/29,20:10,0.580,0.830,0.525,1.047,0.736,0.337,0.592,0.557,�k��,5.7,��
2022/10/29,20:20,0.579,0.833,0.525,1.049,0.736,0.337,0.591,0.557,�k��,6.8,��
2022/10/29,20:30,0.579,0.831,0.527,1.050,0.735,0.337,0.592,0.556,�k��,6.9,��
2022/10/29,20:40,0.580,0.831,0.526,1.050,0.738,0.336,0.591,0.556,�k��,5.9,��
2022/10/29,20:50,0.580,0.832,0.525,1.052,0.737,0.337,0.592,0.557,�k��,6.1,��
2022/10/29,21:00,0.578,0.831,0.525,1.050,0.737,0.337,0.592,0.557,�k��,6.7,��
2022/10/29,21:10,0.579,0.830,0.525,1.049,0.738,0.337,0.591,0.556,�k��,5.6,��
2022/10/29,21:20,0.578,0.831,0.525,1.051,0.735,0.336,0.591,0.555,�k��,6.4,��
2022/10/29,21:30,0.580,0.831,0.525,1.048,0.735,0.337,0.591,0.557,�k��,6.6,��
2022/10/29,21:40,0.577,0.831,0.527,1.049,0.737,0.338,0.590,0.556,�k��,5.3,��
2022/10/29,21:50,0.580,0.830,0.526,1.049,0.735,0.338,0.591,0.557,�k��,5.5,��
2022/10/29,22:00,0.578,0.830,0.524,1.052,0.735,0.335,0.591,0.557,�k��,5.3,��
2022/10/29,22:10,0.579,0.830,0.526,1.050,0.736,0.335,0.591,0.557,�k��,6.2,��
2022/10/29,22:20,0.578,0.831,0.526,1.048,0.738,0.336,0.591,0.556,�k��,5.9,��
2022/10/29,22:30,0.580,0.830,0.525,1.050,0.736,0.337,0.591,0.555,�k��,6.8,��
2022/10/29,22:40,0.578,0.829,0.525,1.051,0.736,0.337,0.591,0.559,�k�k��,7.0,��
2022/10/29,22:50,0.578,0.833,0.525,1.051,0.735,0.336,0.593,0.557,�k�k��,6.4,��
2022/10/29,23:00,0.580,0.831,0.526,1.052,0.736,0.335,0.591,0.557,�k��,5.9,��
2022/10/29,23:10,0.577,0.831,0.526,1.050,0.735,0.337,0.592,0.556,�k��,7.2,��
2022/10/29,23:20,0.577,0.831,0.525,1.050,0.736,0.335,0.591,0.558,�k��,7.0,��
2022/10/29,23:30,0.578,0.831,0.528,1.049,0.736,0.337,0.591,0.560,�k��,6.3,��
2022/10/29,23:40,0.577,0.831,0.525,1.050,0.735,0.335,0.592,0.557,�k�k��,7.0,��
2022/10/29,23:50,0.579,0.831,0.526,1.050,0.737,0.337,0.593,0.558,�k�k��,6.6,��
